This is the latest recevied weather packets stored in our database for station/object DK6GC-10. If no packets are shown the sender has not sent any weather packets the latest 10 day(s).
| Time | Temp. | Humidity | Pressure | Rain* | Wind** | Luminosity | Snow |
|---|---|---|---|---|---|---|---|
| 1777846525 | 15° C | 65% | 1015.5 hPa | - | - | - | - |
| 1777845625 | 15° C | 64% | 1015.4 hPa | - | - | - | - |
| 1777844724 | 15° C | 61% | 1015.5 hPa | - | - | - | - |
| 1777843824 | 15° C | 62% | 1015.5 hPa | - | - | - | - |
| 1777842924 | 15.56° C | 60% | 1015.5 hPa | - | - | - | - |
| 1777842024 | 15.56° C | 60% | 1015.3 hPa | - | - | - | - |
| 1777841124 | 16.11° C | 57% | 1015.3 hPa | - | - | - | - |
| 1777840223 | 16.11° C | 58% | 1015.4 hPa | - | - | - | - |
| 1777839324 | 16.67° C | 55% | 1015.3 hPa | - | - | - | - |
| 1777838423 | 16.67° C | 52% | 1015.2 hPa | - | - | - | - |
| 1777837523 | 16.67° C | 51% | 1015.3 hPa | - | - | - | - |
| 1777836623 | 16.11° C | 55% | 1015.5 hPa | - | - | - | - |
| 1777835723 | 16.67° C | 50% | 1015.5 hPa | - | - | - | - |
| 1777834822 | 17.22° C | 50% | 1015.6 hPa | - | - | - | - |
| 1777833922 | 17.78° C | 44% | 1015.5 hPa | - | - | - | - |
| 1777833022 | 17.78° C | 44% | 1015.6 hPa | - | - | - | - |
| 1777832121 | 18.33° C | 45% | 1015.5 hPa | - | - | - | - |
| 1777831225 | 18.33° C | 43% | 1015.4 hPa | - | - | - | - |
| 1777830325 | 18.89° C | 41% | 1015.3 hPa | - | - | - | - |
| 1777829425 | 19.44° C | 39% | 1015.3 hPa | - | - | - | - |
| 1777828525 | 20° C | 39% | 1015.3 hPa | - | - | - | - |
| 1777827625 | 20.56° C | 37% | 1015.2 hPa | - | - | - | - |
| 1777826725 | 20.56° C | 36% | 1015.3 hPa | - | - | - | - |
| 1777825824 | 21.11° C | 37% | 1015.3 hPa | - | - | - | - |
| 1777824924 | 21.11° C | 36% | 1015.2 hPa | - | - | - | - |
* Rain since midnight (hover to see other rain measurements)
** Current wind speed in m/s (hover to see current wind gust speed)